OneWeb SL0684

operational
NORAD ID: 56720 Int'l Des: 2023-068 Owner: ONEWEBN Country: UK Constellation: oneweb
LEOCIRCULARPOLARONEWEB_TYPE

关于 OneWeb SL0684

正在加载描述...

实时位置

正在加载3D地球...

即将过境

高度历史

Altitude vs Time

uPlot chart will show altitude changes over time

两行轨道根数

1 56720U 23068L 26062.11547310 .00000130 00000-0 31007-3 0 9995
2 56720 87.8952 280.3589 0002403 120.1620 239.9749 13.15546934135303
Epoch: Mar 3, 2026 • Age: 30 hours

当前状态

高度 1218.4 km
速度 7.24 km/s
星下点 -39.18°S, 27.1°E
发射日期 May 20, 2023
运行时间 2.7 years
类型 internet

技术详情

分类 Payload
质量 148.00 kg
干质量 140.00 kg
总质量 148.00 kg
长度 1.30 m
直径 1.00 m
跨度 5.00 m
形状 Trapezoid+2 pan
制造商 ONEWUS
平台类型 ARROW
阶段状态 In Orbit
所有者/国家 ONEWEBN/UK

大型星座

Loading constellations...